www.pogodaiklimat.ru

ПОГОДА в Порт Алсворт, AK

  • Прогноз погоды в Порт Алсворт
  • Монитор погоды в Порт Алсворт
  • Климат в Порт Алсворт

АРХИВ ПОГОДЫ в Порт Алсворт

Время (UTC), дата Ветер
(напр.,м/с)
 
Видим.   Явления Облачность Т
(С)
Тd
(С)
f
(%)
Тe
(С)
Тes
(С)
Комфортность

P
(гПа)

Po
(гПа)
Тmin
(С)
Tmax
(С)
R
(мм)
SD
(см)
20:57 22.02 СВ  64 км    2/0 7500 м
[верхняя] 
-1.0  -6.0  69  -5  -3      1014.6         
22:50 22.02 СВ  64 км    8/0 7500 м
[верхняя] 
-1.0  -6.0  69  -6  -5      1014.6         
00:57 23.02 СВ  64 км    10/0 4500 м
[средняя] 
-1.0  -6.0  69  -6  -6      1014.6         
16:50 23.02   64 км    2/0 4500 м
[средняя верхняя] 
-11.0  -15.0  72  -11  -11      1015.7         
18:51 23.02 ЮЗ  64 км    2/0 7500 м
[верхняя] 
-1.0  -6.0  69  -5  -5      1015.7         
20:53 23.02 В  64 км    2/0 7500 м
[верхняя] 
+4.0  -3.0  60  +1  +3      1015.0         
22:58 23.02   64 км    ясно  +7.0  -6.0  39  +7  +10      1014.6         
00:54 24.02   64 км    ясно  +4.0  -3.0  60  +3  +5      1014.6         
16:57 24.02 В  48 км    8/0 7500 м
[верхняя] 
+1.0  -2.0  80  -4  -4      1016.0         
20:58 24.02 СВ  64 км    5/0 6000 м
[средняя] 
+6.0  -6.0  42  +2  +2      1018.0         
22:52 24.02 СВ  64 км    5/0 6000 м
[средняя] 
+4.0  -3.0  60  0  +1      1018.3         
00:53 25.02 СВ  64 км    8/0 4500 м
[средняя верхняя] 
+3.0  -4.0  60  -1  -1      1017.7         
16:50 25.02   64 км    5/0 4500 м
[средняя верхняя] 
-9.0  -12.0  79  -9  -9      1014.6         
19:50 15.03 СВ  48 км    10/10 1800 м  +4.0  -1.0  70  -3  -3      985.5         
21:50 15.03 В  32 км    10/10 1800 м  +6.0  +1.0  70  0  0      984.1         
15:50 16.03 СВ  48 км    8/0 3000 м
[средняя] 
+5.0  +1.0  75  -1  -1      975.1         
17:57 16.03 СВ  10  48 км    10/0 3000 м
[средняя] 
+6.0  -1.0  61  -0  -0      975.4         
19:54 16.03 В  10  48 км    10/8 900 м
[средняя] 
+7.0  +1.0  66  +1  +1      975.8         
21:50 16.03 В  48 км    10/8 1800 м
[средняя] 
+7.0  +1.0  66  +2  +3      976.1         
15:50 17.03   24 км  слабый дождь  10/10 1200 м  +2.0  +1.0  93  +1  +1      982.8         
19:58 17.03   24 км  слабый дождь  10/10 1200 м  +3.0  +2.0  93  +2  +2      979.5         
23:50 17.03 СВ  10  32 км    8/8 1800 м
[средняя] 
+8.0  +3.0  71  +3  +3      976.1         
15:58 18.03   48 км    10/10 1800 м  0.0  -2.0  86  -1  -1      981.5         
17:55 18.03   40 км    10/10 1800 м  +1.0  -1.0  86  -0  -0      981.5         
19:52 18.03 ЮЗ  40 км    10/10 1800 м  +2.0  -1.0  80  -3  -3      982.5         
23:50 18.03 ЮЗ  8 км  слабый снег  10/10 150 м  -1.0  -2.0  93  -9  -9      984.5         
15:55 19.03   40 км    10/10 1200 м  +3.0  +7.0  100  +2  +2      1001.9         
17:57 19.03 СВ  48 км    8/8 1200 м  -1.0  -4.0  80  -7  -7      1002.9         
21:50 19.03 СВ  64 км    ясно  +4.0  -2.0  65  0  +4      1003.3         
15:57 20.03 СВ  32 км    10/10 1200 м  +4.0  +2.0  87  +4  +4      985.2         
17:50 20.03 В  32 км  слабый дождь  10/10 1200 м  +6.0  +2.0  75  +1  +1      983.1         
19:57 20.03 СВ  10  48 км    8/8 1800 м
[средняя] 
+8.0  +2.0  66  +3  +3      1002.9         
21:57 20.03 СВ  48 км    8/8 1800 м  +8.0  +2.0  66  +3  +4      980.5         
23:58 20.03 В  32 км    10/10 1200 м  +8.0  +2.0  66  +4  +4      980.5         
15:57 21.03 СВ  10
{18} 
48 км    10/8 1800 м
[средняя] 
+8.0  +2.0  66  +3  +3      984.5         
17:56 21.03 СВ  10  48 км    10/8 1800 м
[средняя] 
+8.0  +2.0  66  +3  +3      984.1         
23:58 21.03 СВ  11  48 км    10/8 1800 м
[средняя] 
+9.0  +1.0  57  +4  +4      981.8         
15:58 22.03 В  48 км    8/8 1200 м  +6.0  +2.0  75  +1  +1      981.5         
17:55 22.03 СВ  48 км    8/8 1800 м  +9.0  +1.0  57  +6  +6      982.1         
19:55 22.03 СВ  14  32 км    8/8 1200 м  +8.0  0.0  57  +2  +2      982.1         
21:55 22.03 В  11  32 км    8/8 1200 м  +9.0  0.0  53  +4  +4      982.8         
23:56 22.03 СВ  10  48 км    5/5 1800 м  +10.0  -1.0  46  +6  +6      983.5         
15:53 23.03   40 км  слабый дождь  10/10 1200 м  +3.0  +2.0  93  +2  +2      991.9         
17:58 23.03   32 км  слабый дождь  10/10 1200 м  +5.0  +3.0  87  +4  +4      993.5         
19:53 23.03   48 км    10/10 1200 м  +7.0  +4.0  81  +6  +6      995.2         
21:56 23.03 ЮЗ  48 км    8/8 1200 м
[средняя] 
+9.0  +4.0  71  +8  +10      996.5         
23:58 23.03 З  48 км    10/8 1800 м
[средняя] 
+9.0  0.0  53  +7  +8      997.9         
15:58 24.03 В  48 км    10/5 1800 м
[средняя] 
+2.0  -1.0  80  -2  -2      1004.9         

 

Местоположение метеостанции Port Alsworth Airport: широта 60.2000 долгота -154.3200 высота над уровнем моря 85 м.

В архиве по умолчанию представлена погода в Порт Алсворт за последние 1-2 суток. Обновление информации о фактической погоде в базе происходит ежечасно! Архивные данные за месяц целиком и за предыдущие месяцы Вы можете получить, выбрав интересующий диапазон дат из раскрывающегося списка и нажав кнопку "Ввод!".

Внимание! Архив погоды МЕТАР в базе сайта хранится не более 60 дней. Нет смысла пытаться выбрать более раннюю дату.

Внимание! Время в таблицах - всемирное. Для получения местного времени необходимо прибавить поправку, которая в Порт Алсворт равна -9 ч.

Ветер - указаны скорость ветра в м/с и направление, откуда дует ветер: С - северный, СВ - северо-восточный, В - восточный, ЮВ - юго-восточный, Ю - южный, ЮЗ - юго-западный, З - западный, СЗ - северо-западный.
Видимость - горизонтальная дальность видимости в метрах или километрах. При видимости от 1 до 10 км при отсутствии осадков обычно наблюдается дымка, при ухудшении видимости до 1 км и менее - туман. В сухую погоду видимость может ухудшаться дымом, пылью или мглою.
Атмосферные явления - указаны явления, наблюдавшиеся в указанный момент времени.
Облачность - указаны через наклонную черту верхняя и нижняя облачность в баллах и высота нижней границы облаков в метрах. Внимание: облачность, как и прочие метеорологические величины в США измеряются автоматическими метеостанциями. Указанные значения в баллах носят условный характер и показывают процент времени, в течение которого, в среднем, лазерный луч высотомера отражался от облаков обратно.
T - Температура воздуха - температура, измеренная на высоте 2 м над землей.
Td - Температура точки росы - температура, при понижении до которой содержащийся в воздухе водяной пар достигнет насыщения.
f - Относительная влажность воздуха - влажноcть воздуха, измеренная на высоте 2 м над землей.
Te - Эффективная температура - температура, которую ощущает одетый по сезону человек в тени. Характеристика душности погоды. При расчете учитывается влияние влажности воздуха и скорости ветра на теплоощущения человека.
Tes - Эффективная температура на солнце - температура, которую ощущает человек, с поправкой на солнечный нагрев. Характеристика знойности погоды. Зависит от высоты солнца над горизонтом, облачности и скорости ветра. Ночью, в пасмурную погоду, а также при ветре 12 м/с и более поправка равна нулю.
P - Атмосферное давление - приведенное к уровню моря атмосферное давление.
Po - Атмосферное давление - измеренное на уровне метеостанции атмосферное давление.
Tmin - Минимальная температура - минимум температуры воздуха на высоте 2 м над землей.
Tmax - Максимальная температура - максимум температуры воздуха на высоте 2 м над землей.
R - Количество осадков - Количество выпавших осадков за 3 или 6 часов, мм.
SD - Снежный покров - Высота снежного покрова, см.